STARLINK-2621 (48370 NORAD) Tracking and Keplerian Element Data

This shows tracking and keplerian element data for the satellite.

Feedback or suggestion? Click here.




ElementValue
Catalog48370
NameSTARLINK-2621
Epoch Orbit1459
Epoch Day215.06066242
Epoch Year2021
RAAN331.7589
Inclination53.054
Eccentricity0.0001092
Argument of Perigee102.1147
Mean Anonmoly257.9964
Mean Motion15.06392333
Decay Rate1E-05
L11 48370U 21038T 21215.06066242 .00001000 00000-0 86031-4 0 9996
L22 48370 53.0540 331.7589 0001092 102.1147 257.9964 15.06392333 14591

Live tracking and technical data element details for STARLINK-2621 (NORAD 48370). STARLINK-2621 can be tracked NOW for your location showing map with azimuth and elevation plus other details from your city location.

Track the satellite on the map from your city or location and see movement details for azimuth, elevation, latitude, longitude, range, height, and movement on the map or in text.







IsCatalogInMostPopularTable: catalog: 48370, numindb: 32
Update: records affected: 1



GetName: 48370 STARLINK-2621

Hit Count: updated at: Tue, 03 Aug 2021 20:56:06 GMT